{"data":{"norad_id":63418,"intl_designator":"2025-065V","name":"STARLINK-33703","alt_names":[],"object_type":"PAYLOAD","status":"ACTIVE","operator":null,"country":"US","launch_date":"2025-03-31","launch_site_code":"AFETR","launch_vehicle":null,"mission":null,"orbit_class":"UNKNOWN","rcs_meters":null,"size_class":null,"mass_kg":null,"dimensions":null,"purposes":["comms"],"wikipedia_slug":null,"has_3d_model":false,"image_url":null,"decayed_at":null,"tle_current":{"epoch":"2026-09-20T21:51:25.216992Z","epoch_age_seconds":123340,"freshness":"FRESH","line1":"1 63418U 25065V   26263.91070853  .00013620  00000+0  50343-3 0  9991","line2":"2 63418  43.0002  84.7593 0001195 277.5392  82.5324 15.27586822 82695","mean_motion":15.27586822,"eccentricity":0.0001195,"inclination_deg":43.0002,"raan_deg":84.7593,"arg_perigee_deg":277.5392,"mean_anomaly_deg":82.5324,"bstar":0.00050343,"rev_number":8269,"period_min":94.266327730863,"perigee_km":482.20875929608,"apogee_km":483.84857789087,"semimajor_km":6861.1656685935,"source":"CELESTRAK","updated_at":"2026-09-21T09:00:34.981649Z"}}}